Location: Peebles
(55.6412°N, 3.1714°W)
Time: 21:47:42
(UTC+00:00)

FENGYUN 1C DEB - Pass Details

Date: 06 February 2023
Orbit: 707 x 862 km, 98.5° (Epoch: 07 November)

Event Time Altitude Azimuth Distance (km) Brightness Sun altitude
Rises 21:20:02 0° 222° (SW) 3,395 ? -36.4°
Reaches altitude 10° 21:23:37 10° 246° (WSW) 2,476 ? -36.8°
Maximum altitude 21:26:30 14° 278° (W) 2,190 ? -37.2°
Drops below altitude 10° 21:29:24 10° 310° (NW) 2,487 ? -37.5°
Sets 21:33:02 0° 334° (NNW) 3,420 ? -38.0°
